EJA804 KTEB-KBHM

Flight info

Callsign EJA804
Flight time N/A
Altitude 43000
Route LANNA J48 CSN FANPO Q40 NIOLA DIODE
Aircraft C700/M-SBDGHM1RWXY/LB2

Departure

Time 2026-05-04 02:07
Airport Teterboro Airport (KTEB)

Arrival

Time N/A
Airport Birmingham-Shuttlesworth International Airport (KBHM)
Time Latitude Longitude Altitude Speed Heading
2026-05-04 01:50 40.85664 -74.06230 9 ft 0 kts 175°
2026-05-04 02:01 40.85663 -74.06230 -9 ft 1 kts 175°
2026-05-04 02:02 40.85647 -74.06227 9 ft 0 kts 159°
2026-05-04 02:03 40.85620 -74.06209 9 ft 13 kts 147°
2026-05-04 02:03 40.85559 -74.06117 9 ft 7 kts 125°
2026-05-04 02:04 40.85571 -74.06062 9 ft 8 kts 24°
2026-05-04 02:04 40.85676 -74.06052 9 ft 20 kts
2026-05-04 02:04 40.85762 -74.06041 9 ft 12 kts 20°
2026-05-04 02:04 40.85784 -74.05957 9 ft 12 kts 92°
2026-05-04 02:05 40.85779 -74.05826 9 ft 17 kts 89°
2026-05-04 02:05 40.85797 -74.05651 9 ft 21 kts 81°
2026-05-04 02:05 40.85811 -74.05542 9 ft 6 kts 79°
2026-05-04 02:05 40.85815 -74.05514 9 ft 0 kts 80°
2026-05-04 02:06 40.85815 -74.05479 9 ft 10 kts 98°
2026-05-04 02:06 40.85755 -74.05447 9 ft 16 kts 208°
2026-05-04 02:06 40.85544 -74.05753 9 ft 87 kts 228°
2026-05-04 02:07 40.84959 -74.06609 176 ft 154 kts 227°
2026-05-04 02:07 40.84125 -74.07788 835 ft 199 kts 226°
2026-05-04 02:07 40.82899 -74.09061 1450 ft 233 kts 216°
2026-05-04 02:07 40.81979 -74.10454 2586 ft 184 kts 259°
2026-05-04 02:08 40.82161 -74.11931 3292 ft 160 kts 290°
2026-05-04 02:08 40.82479 -74.13415 3257 ft 175 kts 279°
2026-05-04 02:08 40.82535 -74.15022 3713 ft 185 kts 271°
2026-05-04 02:08 40.82343 -74.16838 4370 ft 220 kts 259°
2026-05-04 02:09 40.81764 -74.18940 5292 ft 265 kts 252°
2026-05-04 02:09 40.81046 -74.21110 6295 ft 243 kts 251°
2026-05-04 02:09 40.80384 -74.23238 7184 ft 253 kts 253°
2026-05-04 02:09 40.79735 -74.25434 8113 ft 261 kts 254°
2026-05-04 02:10 40.79057 -74.27687 9096 ft 270 kts 254°
2026-05-04 02:10 40.78355 -74.29988 10110 ft 274 kts 254°
2026-05-04 02:10 40.77651 -74.32305 11050 ft 277 kts 254°
2026-05-04 02:10 40.76929 -74.34683 12042 ft 281 kts 253°
2026-05-04 02:11 40.76196 -74.37095 13081 ft 285 kts 253°
2026-05-04 02:11 40.75452 -74.39540 14120 ft 289 kts 252°
2026-05-04 02:11 40.74700 -74.42007 15127 ft 290 kts 252°
2026-05-04 02:11 40.73944 -74.44485 16170 ft 292 kts 252°
2026-05-04 02:12 40.73183 -74.46980 17267 ft 294 kts 251°
2026-05-04 02:12 40.72416 -74.49491 18400 ft 296 kts 251°
2026-05-04 02:12 40.71645 -74.52012 19426 ft 297 kts 251°
2026-05-04 02:12 40.70874 -74.54530 20468 ft 295 kts 251°
2026-05-04 02:13 40.70109 -74.57029 21549 ft 293 kts 252°
2026-05-04 02:13 40.69349 -74.59505 22644 ft 290 kts 252°
2026-05-04 02:13 40.68601 -74.61944 23712 ft 286 kts 252°
2026-05-04 02:13 40.67861 -74.64355 24626 ft 281 kts 252°
2026-05-04 02:14 40.67132 -74.66722 25525 ft 277 kts 253°
2026-05-04 02:14 40.66414 -74.69057 26430 ft 272 kts 253°
2026-05-04 02:14 40.65708 -74.71347 27319 ft 268 kts 253°
2026-05-04 02:14 40.65016 -74.73596 28207 ft 263 kts 253°
2026-05-04 02:15 40.64334 -74.75806 29076 ft 258 kts 254°
2026-05-04 02:15 40.63664 -74.77978 29931 ft 254 kts 254°
2026-05-04 02:15 40.63005 -74.80112 30631 ft 250 kts 254°
2026-05-04 02:15 40.62354 -74.82214 31287 ft 246 kts 253°
2026-05-04 02:16 40.61713 -74.84288 31925 ft 243 kts 253°
2026-05-04 02:16 40.61079 -74.86338 32544 ft 241 kts 253°
2026-05-04 02:16 40.60450 -74.88369 33149 ft 239 kts 252°
2026-05-04 02:16 40.59826 -74.90381 33732 ft 237 kts 252°
2026-05-04 02:17 40.59205 -74.92380 34233 ft 235 kts 252°
2026-05-04 02:17 40.58588 -74.94369 34675 ft 234 kts 252°
2026-05-04 02:17 40.57973 -74.96348 35097 ft 234 kts 252°
2026-05-04 02:17 40.57357 -74.98325 35507 ft 233 kts 252°
2026-05-04 02:18 40.56745 -75.00299 35922 ft 233 kts 252°
2026-05-04 02:18 40.56081 -75.02218 36308 ft 236 kts 245°
2026-05-04 02:18 40.55172 -75.04032 36690 ft 239 kts 239°
2026-05-04 02:18 40.54092 -75.05717 37063 ft 241 kts 237°
2026-05-04 02:19 40.53024 -75.07413 37438 ft 241 kts 238°
2026-05-04 02:19 40.51957 -75.09117 37788 ft 242 kts 237°
2026-05-04 02:19 40.50878 -75.10812 38142 ft 242 kts 237°
2026-05-04 02:19 40.49795 -75.12517 38499 ft 243 kts 237°
2026-05-04 02:20 40.48710 -75.14223 38802 ft 244 kts 237°
2026-05-04 02:20 40.47623 -75.15936 39055 ft 244 kts 237°
2026-05-04 02:20 40.46530 -75.17653 39307 ft 245 kts 237°
2026-05-04 02:20 40.45435 -75.19375 39556 ft 246 kts 237°
2026-05-04 02:21 40.44335 -75.21102 39792 ft 247 kts 237°
2026-05-04 02:21 40.43230 -75.22837 40029 ft 248 kts 236°
2026-05-04 02:21 40.42122 -75.24574 40257 ft 249 kts 236°
2026-05-04 02:21 40.41008 -75.26322 40488 ft 250 kts 236°
2026-05-04 02:22 40.39891 -75.28074 40719 ft 251 kts 236°
2026-05-04 02:22 40.38767 -75.29833 40947 ft 252 kts 236°
2026-05-04 02:22 40.37642 -75.31593 41181 ft 251 kts 236°
2026-05-04 02:22 40.36556 -75.33283 41610 ft 235 kts 236°
2026-05-04 02:23 40.35528 -75.34888 41879 ft 225 kts 237°
2026-05-04 02:23 40.34537 -75.36440 42010 ft 220 kts 237°
2026-05-04 02:23 40.33560 -75.37971 42084 ft 217 kts 237°
2026-05-04 02:23 40.32594 -75.39482 42117 ft 216 kts 237°
2026-05-04 02:24 40.31628 -75.40988 42139 ft 215 kts 237°
2026-05-04 02:24 40.30668 -75.42487 42162 ft 214 kts 237°
2026-05-04 02:24 40.29711 -75.43978 42165 ft 214 kts 237°
2026-05-04 02:24 40.28769 -75.45447 42175 ft 213 kts 237°
2026-05-04 02:25 40.27803 -75.46954 42173 ft 213 kts 237°
2026-05-04 02:25 40.26850 -75.48434 42172 ft 212 kts 237°
2026-05-04 02:25 40.25900 -75.49913 42163 ft 212 kts 237°
2026-05-04 02:25 40.24951 -75.51390 42155 ft 212 kts 237°
2026-05-04 02:26 40.24003 -75.52864 42150 ft 212 kts 237°
2026-05-04 02:26 40.23067 -75.54318 42140 ft 211 kts 237°
2026-05-04 02:26 40.22107 -75.55808 42135 ft 211 kts 237°
2026-05-04 02:26 40.21174 -75.57258 42133 ft 211 kts 237°
2026-05-04 02:27 40.20227 -75.58725 42125 ft 211 kts 237°
2026-05-04 02:27 40.19283 -75.60192 42114 ft 211 kts 237°
2026-05-04 02:27 40.18337 -75.61659 42107 ft 211 kts 237°
2026-05-04 02:27 40.17391 -75.63122 42104 ft 211 kts 237°
2026-05-04 02:28 40.16447 -75.64585 42102 ft 210 kts 237°
2026-05-04 02:28 40.15502 -75.66046 42090 ft 210 kts 237°
2026-05-04 02:28 40.14559 -75.67506 42085 ft 210 kts 237°
2026-05-04 02:28 40.13615 -75.68966 42083 ft 210 kts 237°
2026-05-04 02:29 40.12672 -75.70424 42076 ft 210 kts 237°
2026-05-04 02:29 40.11729 -75.71881 42080 ft 210 kts 237°
2026-05-04 02:29 40.10787 -75.73336 42076 ft 210 kts 237°
2026-05-04 02:29 40.09844 -75.74791 42067 ft 210 kts 237°
2026-05-04 02:30 40.08901 -75.76244 42064 ft 210 kts 237°
2026-05-04 02:30 40.07960 -75.77698 42060 ft 210 kts 237°
2026-05-04 02:30 40.07017 -75.79151 42054 ft 210 kts 237°
2026-05-04 02:30 40.06075 -75.80602 42053 ft 210 kts 237°
2026-05-04 02:31 40.05133 -75.82053 42046 ft 210 kts 237°
2026-05-04 02:31 40.04190 -75.83504 42047 ft 209 kts 237°
2026-05-04 02:31 40.03249 -75.84953 42041 ft 209 kts 237°
2026-05-04 02:31 40.02307 -75.86400 42034 ft 209 kts 237°
2026-05-04 02:32 40.01366 -75.87847 42029 ft 209 kts 237°
2026-05-04 02:32 40.00424 -75.89293 42022 ft 209 kts 237°
2026-05-04 02:32 39.99484 -75.90738 42012 ft 209 kts 237°
2026-05-04 02:32 39.98543 -75.92180 41997 ft 209 kts 237°
2026-05-04 02:33 39.97606 -75.93620 41997 ft 209 kts 237°
2026-05-04 02:33 39.96663 -75.95063 42004 ft 209 kts 237°
2026-05-04 02:33 39.95725 -75.96504 42008 ft 208 kts 237°
2026-05-04 02:33 39.94786 -75.97943 42007 ft 208 kts 237°
2026-05-04 02:34 39.93847 -75.99379 42008 ft 208 kts 237°
2026-05-04 02:34 39.92909 -76.00817 42008 ft 208 kts 237°
2026-05-04 02:34 39.91970 -76.02249 42007 ft 208 kts 237°
2026-05-04 02:34 39.91034 -76.03685 42003 ft 208 kts 237°
2026-05-04 02:35 39.90096 -76.05116 42002 ft 208 kts 237°
2026-05-04 02:35 39.89160 -76.06547 42001 ft 207 kts 237°
2026-05-04 02:35 39.88225 -76.07976 41992 ft 207 kts 237°
2026-05-04 02:35 39.87289 -76.09401 41991 ft 207 kts 237°
2026-05-04 02:36 39.86355 -76.10831 41990 ft 207 kts 237°
2026-05-04 02:36 39.85419 -76.12255 41995 ft 207 kts 237°
2026-05-04 02:36 39.84484 -76.13681 41991 ft 207 kts 237°
2026-05-04 02:36 39.83549 -76.15103 41993 ft 207 kts 237°
2026-05-04 02:37 39.82618 -76.16525 41989 ft 207 kts 237°
2026-05-04 02:37 39.81683 -76.17946 41989 ft 207 kts 237°
2026-05-04 02:37 39.80763 -76.19347 41990 ft 206 kts 237°
2026-05-04 02:37 39.79830 -76.20767 41988 ft 206 kts 237°